Regional Weather Roundup
Issued by NWS

Home | Current Version | Previous Version | Graphics & Text | Print | Product List | Glossary On
Versions: 1 2 3 4 5 6 7 8 9 10 11 12 13 14 15 16 17 18 19 20 21 22 23 24 25 26 27 28 29 30 31 32 33 34 35 36 37 38 39 40 41 42 43 44 45 46 47 48 49 50
000
ASUS43 KDTX 302301
RWRMI
MICHIGAN HOURLY REGIONAL WEATHER ROUNDUP
NATIONAL WEATHER SERVICE DETROIT/PONTIAC MI
700 PM EDT TUE JUN 30 2015

NOTE: "FAIR" INDICATES FEW OR NO CLOUDS BELOW 12,000 FEET WITH NO
SIGNIFICANT WEATHER AND/OR OBSTRUCTION TO VISIBILITY.

MIZ047>049-052>055-059>063-066>070-074>076-081>083-010000-
SOUTHEAST LOWER MICHIGAN

CITY           SKY/WX    TMP DP  RH WIND       PRES   REMARKS
ADRIAN         PTSUNNY   73  62  68 NW7       29.76R
ALMA           CLOUDY    67  63  86 NE5       29.77S
ANN ARBOR      TSTM      66  63  90 SW10      29.75R FOG
BAD AXE        CLOUDY    65  58  76 E5        29.78S
CARO           CLOUDY    69  60  73 N5        29.75S
DETROIT CITY   CLOUDY    69  61  75 NE9       29.73S
DETROIT        TSTM      72  63  73 SW8       29.75R
FLINT          CLOUDY    72  61  68 N7        29.75S
GROSSE ILE     MOSUNNY   73  63  68 SW5       29.73S
HILLSDALE      MOSUNNY   71  63  77 NW12G20   29.78R
HOWELL         CLOUDY    68  65  90 W6        29.76S

CITY           SKY/WX    TMP DP  RH WIND       PRES   REMARKS
JACKSON        PTSUNNY   68  63  84 NE3       29.77S
LAMBERTVILLE   LGT RAIN  74  64  69 W3        29.75S
LANSING        PTSUNNY   69  62  78 NW6       29.76F
LAPEER         LGT RAIN  69  60  73 CALM      29.76R
MASON          LGT RAIN  66  61  84 N6        29.76S
MONROE         CLOUDY    73  63  69 W5        29.73F
MT. CLEMENS    PTSUNNY   67  64  89 E6        29.72F
PONTIAC        PTSUNNY   70  60  70 NW8       29.74S
PORT HOPE        N/A     64  58  80 N5        29.76F
PORT HURON     CLOUDY    66  63  88 N5        29.75F
TRI CITIES     CLOUDY    69  60  73 NE9       29.77S
MIDLAND        CLOUDY    67  58  73 NE3       29.76S
TROY           CLOUDY    72  62  71 E5        29.76S
SAGINAW HB     RAIN      68  63  83 N5        29.76S
$$
MIZ043>046-050>051-056>058-064>065-071>073-077>080-010000-
SOUTHWEST LOWER MICHIGAN

CITY           SKY/WX    TMP DP  RH WIND       PRES   REMARKS
BATTLE CREEK   CLOUDY    70  60  70 NW14      29.79R
BENTON HARBOR  CLOUDY    63  60  90 NW8       29.83R FOG
BIG RAPIDS     PTSUNNY   67  58  72 NW6       29.78S
COLDWATER      CLOUDY    70  58  65 W13       29.78S
FREMONT        CLOUDY    68  62  79 N12       29.79R
HOLLAND        MOSUNNY   66  60  81 NW10G18   29.81R
GRAND RAPIDS   CLOUDY    69  61  75 W13       29.78R
IONIA          PTSUNNY   69  61  76 NW5       29.76S
KALAMAZOO      CLOUDY    68  59  73 NW10      29.80R
LUDINGTON      PTSUNNY   61  55  79 N12G21    29.84S
MARSHALL       CLOUDY    71  60  69 W9        29.77S
MOUNT PLEASANT CLOUDY    66  60  82 NE6       29.77R
MUSKEGON       MOSUNNY   68  59  73 NW8       29.80R
SOUTH HAVEN    CLOUDY    62  59  91 NW6       29.82S FOG
$$
MIZ016>042-010000-
NORTHERN LOWER MICHIGAN

CITY           SKY/WX    TMP DP  RH WIND       PRES   REMARKS
ALPENA         CLOUDY    65  61  87 N3        29.81S
BEAVER ISLAND  CLOUDY    57  51  79 NW9G16    29.84S
BELLAIRE       CLOUDY    62  56  80 CALM      29.82S
CADILLAC       CLOUDY    62  58  85 NW10G16   29.81S
CHARLEVOIX     CLOUDY    58  55  88 N9        29.86S
FRANKFORT      CLOUDY    57  49  73 N9        29.85S
GAYLORD        CLOUDY    63  61  93 CALM      29.81S
GRAYLING       LGT RAIN  62  60  94 N5        29.81F
HARBOR SPRINGS CLOUDY    61  59  91 NW5       29.82R
HOUGHTON LAKE  RAIN      62  58  86 CALM      29.81R FOG
MANISTEE       CLOUDY   N/A N/A N/A N10       29.84S
OSCODA         CLOUDY    67  56  68 NE7       29.78F
PELLSTON       CLOUDY    62  60  93 W7        29.81S
ROGERS CITY    LGT RAIN  64  60  89 CALM      29.82S
TRAVERSE CITY  CLOUDY    57  52  83 NW7       29.83R
$$
MIZ007>008-015-010000-
EASTERN UPPER MICHIGAN

CITY           SKY/WX    TMP DP  RH WIND       PRES   REMARKS
KINROSS        CLOUDY    54  52  94 N8        29.83S
MACKINAC ISLAN LGT RAIN  61  61 100 N8        29.81S
NEWBERRY       CLOUDY    56  51  84 NW9       29.84S
S. S. MARIE    CLOUDY    54  52  93 NW5       29.83S
MUNISING         N/A     47  44  90 NW15      29.91S
$$
MIZ004>006-011>014-085-010000-
CENTRAL UPPER MICHIGAN

CITY           SKY/WX    TMP DP  RH WIND       PRES   REMARKS
MANISTIQUE     CLOUDY    52  46  79 N13G23    29.86S
ESCANABA       CLOUDY   N/A N/A N/A N10G18    29.89R
MENOMINEE      CLOUDY    63  50  63 N14G20    29.88R
SAWYER-GWINN   CLOUDY    48  45  87 N14G20    29.92S
$$
MIZ001>003-009>011-084-010000-
WESTERN UPPER MICHIGAN

CITY           SKY/WX    TMP DP  RH WIND       PRES   REMARKS
IRON MOUNTAIN  CLOUDY    55  45  68 N13       29.92R
HOUGHTON       SUNNY     58  41  53 NE9G16    29.95F
COPPER HARBOR    N/A     51  41  68 NE7       29.96S
IRONWOOD       SUNNY     61  48  63 E8        29.93F
$$

ABBREVIATIONS USED IN REMARKS
   TC - TEMPERATURE IN CELSIUS
  WCI - WIND CHILL INDEX
   HX - HEAT INDEX
  VSB - VISIBILITY




USA.gov is the U.S. government's official web portal to all federal, state and local government web resources and services.